风云一号D星 (FENGYUN 1D)

导读 | 星芒AI

FENGYUN 1D 是中国气象局于2002年5月发射的极轨气象卫星,属于风云一号系列。该卫星主要用于气象观测,提供全球云图、地表温度、海洋水温等数据,支持天气预报和气候研究。搭载多通道扫描辐射计,具备较高的观测精度和稳定性。FENGYUN 1D 在轨运行期间为中国的气象监测和防灾减灾提供了重要数据支持,是中国气象卫星发展的重要里程碑。

基本信息
目录编号:
27431
目录名称:
FENGYUN 1D
国际标识:
2002-024B
轨道中心:
EARTH
卫星名称:
风云一号D星
卫星全名:
风云一号D星 (FENGYUN 1D)
卫星状态:
在轨 (已飞行8615 天)
发射日期:
2002-05-15 UTC
国别 :
中国 (CN)
星等 :
--
轨道信息
数据来源 国际轨道数据 AOE轨道数据
星历时间 2025-12-14T10:36:32+0800
1天前
查看轨道信息
2025-12-13T19:00:00+0800
1天前
查看轨道信息
半长轴 7236.861km 7236.85km
偏心率 0.0016014 0.0015967
轨道倾角 98.981° 98.981°
近地点辐角 46.459° 47.811°
升交点赤经 34.035° 33.386°
平近点角 313.791° 252.574°
近地点 847.136km 847.159km
远地点 870.316km 870.271km
周期 102.114分钟 102.114分钟
每日圈数 14.101895 14.101926
详细信息
平衡模式:
自旋稳定
覆盖范围:
亚洲
运营商:
夏威夷科学技术博物馆
运营商所在国:
美国
制造商(研发单位):
上海航天技术研究院
制造商所在国:
中国
使用方式:
暂无
卫星简介
风云气象卫星系列(FENGYUN Meteorological Satellite)是中国于1977年开始研制的气象卫星系列,目前发射了风云一号、风云二号、风云三号、风云四号等卫星系列。其中,风云二号系列、风云四号系列为风云静止卫星,风云一号系列、风云三号系列为风云极轨卫星。该卫星已退役。
2D轨道图
3D轨道图
轨道高度分析图
轨道倾角分析图
轨道综合分析图
查看轨道综合分析图